Weather History for HESN - November, 2012

Change the Weather History Date:

Saturday, November 10, 2012

  Actual Average Record
Temperature  
Mean Temperature 77 °F -  
Max Temperature 86 °F 79 °F 96 °F (1996)
Min Temperature 68 °F 57 °F 57 °F (2005)
Cooling Degree Days 12    
Growing Degree Days 27 (Base 50)    
Moisture  
Dew Point 49 °F    
Average Humidity 35    
Maximum Humidity 49    
Minimum Humidity 22    
Precipitation  
Precipitation 0.00 in 0.00 in - ()
Sea Level Pressure  
Sea Level Pressure 29.98 in    
Wind  
Wind Speed 10 mph ()    
Max Wind Speed 15 mph    
Max Gust Speed -    
Visibility 6.1 miles    
Events      
Averages and records for this station are not official NWS values.
T = Trace of Precipitation, MM = Missing Value Source: Averaged Metar Reports

Daily Weather History Graph

Daily Weather History Graph

Search for Another Location

Airport or City:

Trip Planner

Search our weather history database for the weather conditions in past years. The results will help you decide how hot, cold, wet, or windy it might be!

Date:

Astronomy

Nov. 10, 2012 Rise Set
Actual Time 6:00 AM EET 5:04 PM EET
Civil Twilight 5:36 AM EET 5:28 PM EET
Nautical Twilight 5:09 AM EET 5:55 PM EET
Astronomical Twilight 4:42 AM EET 6:22 PM EET
Moon 2:07 AM EET (11/10) 2:19 PM EET (11/10)
Length of Visible Light 11h 51m
Length of Day
11h 04m
Waning Crescent, 17% of the Moon is Illuminated
Nov 10
Waning Crescent
Nov 14
New
Nov 20
First Quarter
Nov 28
Full
Dec 6
Last Quarter

Hourly Weather History & Observations

Time (EET) Temp. Dew Point Humidity Pressure Visibility Wind Dir Wind Speed Gust Speed Precip Events Conditions
2:00 AM 73 °F 55 °F 43% 29.93 in 6 mi North 11.5 mph - -  
5:00 AM 69.8 °F 50.0 °F 49% 29.95 in - North 11.5 mph - N/A   Clear
6:00 AM 69.8 °F 50.0 °F 49% 29.95 in - NNE 9.2 mph - N/A   Clear
7:00 AM 69.8 °F 48.2 °F 46% 29.98 in - North 9.2 mph - N/A   Clear
8:00 AM 71 °F 47 °F 31% 29.99 in 6 mi North 15.0 mph - -  
8:00 AM 71.6 °F 46.4 °F 41% 30.01 in - North 15.0 mph - N/A   Clear
9:00 AM 73.4 °F 48.2 °F 41% 30.01 in - North 12.7 mph - N/A   Clear
10:00 AM 77.0 °F 48.2 °F 36% 30.01 in - North 13.8 mph - N/A   Clear
11:00 AM 80.6 °F 46.4 °F 30% 30.01 in - North 12.7 mph - N/A   Clear
12:00 PM 82.4 °F 48.2 °F 30% 29.98 in - North 13.8 mph - N/A   Clear
1:00 PM 84.2 °F 50.0 °F 30% 29.95 in - North 10.4 mph - N/A   Clear
2:00 PM 85 °F 52 °F 22% 29.91 in 6 mi North 11.5 mph - -  
2:00 PM 84.2 °F 51.8 °F 33% 29.95 in - North 11.5 mph - N/A   Clear
3:00 PM 86.0 °F 51.8 °F 31% 29.92 in - North 11.5 mph - N/A   Clear
4:00 PM 84.2 °F 51.8 °F 33% 29.92 in - North 10.4 mph - N/A   Clear
5:00 PM 82.4 °F 48.2 °F 30% 29.95 in 6.2 mi NNW 9.2 mph - N/A   Partly Cloudy
6:00 PM 80.6 °F 48.2 °F 32% 29.95 in 6.2 mi North 8.1 mph - N/A   Partly Cloudy
7:00 PM 78.8 °F 46.4 °F 32% 29.98 in - North 8.1 mph - N/A   Clear
8:00 PM 76 °F 46 °F 24% 29.98 in 6 mi North 9.2 mph - -  
8:00 PM 77.0 °F 46.4 °F 34% 30.01 in - North 9.2 mph - N/A   Clear
9:00 PM 73.4 °F 46.4 °F 38% 30.01 in - North 9.2 mph - N/A   Clear
10:00 PM 73.4 °F 44.6 °F 36% 30.04 in - North 9.2 mph - N/A   Clear
11:00 PM 71.6 °F 44.6 °F 38% 30.04 in - North 9.2 mph - N/A   Clear